Simultaneous Nadir Overpasses (SNOs) Predictions

Prediction of SNOs between METOP-B and NOAA-19 Satellite Orbit:

Table of predicted SNOs for the next 14.0 days since TLE Epoch: 3/19/2022
Index Date (METOP-B) Time (METOP-B) Lat,Lon (METOP-B) SZA (METOP-B ) Date (NOAA-19) Time (NOAA-19) Lat,Lon (NOAA-19) SZA (NOAA-19 ) Distance(km) Time Diff (sec)
1 03/28/2022 05:29:16 -80.80, -50.22 100.92 03/28/2022 05:28:05 -80.80, -50.27 100.94 0.88 71
2 03/28/2022 06:19:57 80.79, 116.89 79.05 03/28/2022 06:19:02 80.80, 117.03 79.05 2.99 55
3 03/28/2022 07:10:38 -80.79, -75.72 100.97 03/28/2022 07:10:05 -80.80, -75.74 100.97 1.50 33
4 03/28/2022 08:01:18 80.80, 91.74 79.04 03/28/2022 08:01:01 80.80, 91.91 79.05 3.06 17
5 03/28/2022 08:51:59 -80.80,-100.88 100.97 03/28/2022 08:52:04 -80.80,-100.86 100.97 0.78 5
6 03/28/2022 09:42:39 80.81, 66.59 79.04 03/28/2022 09:43:01 80.80, 66.43 79.02 3.30 22
7 03/28/2022 10:33:21 -80.79,-126.38 101.02 03/28/2022 10:34:04 -80.80,-126.33 101.00 0.82 43



Historial Predications of SNOs between METOP-B and NOAA-19
